QPF
0.04 0.05 0.05 0.05 0.06 0.06 0.05 0.04 0.04 0.04 0.05 0.05 0.06 0.08 0.09 0.09 0.07 0.04 0.03 0.03 0.02 0.02 0.02 0.02 0.02 0.02 0.03 0.04 0.04 0.03 0.04 0.05 0.08 0.09 0.10 0.10 0.10 0.09
0.05 0.06 0.09 0.09 0.08 0.08 0.08 0.07 0.06 0.06 0.07 0.08 0.08 0.07 0.09 0.11 0.11 0.07 0.05 0.05 0.03 0.03 0.03 0.02 0.02 0.02 0.02 0.02 0.02 0.04 0.04 0.03 0.04 0.06 0.07 0.07 0.07 0.07
0.07 0.09 0.10 0.09 0.09 0.10 0.10 0.09 0.07 0.06 0.05 0.05 0.05 0.05 0.05 0.06 0.07 0.07 0.06 0.04 0.03 0.03 0.03 0.03 0.03 0.03 0.03 0.03 0.02 0.02 0.04 0.04 0.04 0.03 0.04 0.05 0.05 0.05
0.05 0.07 0.07 0.07 0.07 0.07 0.09 0.10 0.08 0.06 0.05 0.04 0.03 0.04 0.05 0.05 0.04 0.04 0.05 0.05 0.04 0.03 0.03 0.04 0.04 0.04 0.04 0.04 0.04 0.03 0.03 0.04 0.05 0.05 0.04 0.04 0.04 0.03
0.02 0.03 0.03 0.04 0.05 0.05 0.06 0.08 0.08 0.07 0.05 0.05 0.05 0.04 0.05 0.06 0.06 0.05 0.04 0.05 0.04 0.03 0.03 0.03 0.04 0.04 0.04 0.04 0.04 0.04 0.04 0.04 0.04 0.04 0.05 0.05 0.05 0.04
0.02 0.02 0.02 0.03 0.03 0.04 0.04 0.05 0.06 0.07 0.07 0.07 0.06 0.05 0.06 0.06 0.06 0.06 0.06 0.06 0.05 0.04 0.04 0.03 0.03 0.03 0.03 0.04 0.04 0.04 0.05 0.05 0.05 0.04 0.04 0.05 0.05 0.05
0.02 0.02 0.01 0.01 0.01 0.02 0.03 0.04 0.04 0.05 0.06 0.07 0.07 0.06 0.06 0.06 0.06 0.06 0.06 0.06 0.06 0.05 0.05 0.04 0.03 0.03 0.03 0.04 0.06 0.06 0.05 0.05 0.04 0.04 0.04 0.04 0.04 0.05
0.02 0.01 0.01 0.01 0.01 0.02 0.02 0.02 0.03 0.03 0.05 0.06 0.07 0.06 0.06 0.07 0.08 0.07 0.07 0.07 0.07 0.05 0.04 0.05 0.05 0.05 0.04 0.03 0.05 0.06 0.07 0.06 0.05 0.04 0.04 0.04 0.04 0.04
0.02 0.03 0.02 0.01 0.01 0.02 0.03 0.03 0.03 0.04 0.05 0.06 0.07 0.07 0.07 0.08 0.08 0.07 0.07 0.08 0.09 0.08 0.06 0.05 0.05 0.05 0.06 0.06 0.06 0.06 0.06 0.06 0.06 0.05 0.05 0.05 0.05 0.04
0.02 0.03 0.03 0.02 0.01 0.01 0.02 0.02 0.03 0.05 0.05 0.05 0.05 0.05 0.05 0.05 0.06 0.05 0.05 0.06 0.06 0.06 0.05 0.05 0.04 0.03 0.04 0.04 0.05 0.05 0.05 0.05 0.05 0.06 0.06 0.05 0.05 0.05
0.02 0.01 0.01 0.01 0.01 0.01 0.02 0.03 0.04 0.04 0.04 0.05 0.05 0.05 0.06 0.06 0.06 0.05 0.05 0.05 0.05 0.05 0.05 0.04 0.04 0.04 0.03 0.03 0.03 0.05 0.04 0.04 0.04 0.05 0.05 0.05 0.05 0.04
0.01 0.01 0.01 0.01 0.01 0.01 0.01 0.02 0.04 0.03 0.03 0.04 0.04 0.04 0.04 0.05 0.04 0.03 0.03 0.03 0.04 0.04 0.04 0.04 0.03 0.03 0.03 0.02 0.02 0.02 0.03 0.03 0.03 0.03 0.04 0.04 0.05 0.04
0.01 0.01 0.01 0.01 0.01 0.01 0.01 0.02 0.03 0.03 0.03 0.03 0.02 0.03 0.03 0.03 0.03 0.02 0.02 0.02 0.02 0.01 0.01 0.01 0.02 0.02 0.02 0.01 0.01 0.01 0.01 0.01 0.01 0.01 0.01 0.02 0.03 0.04
0.01 0.01 0.01 0.01 0.01 0.02 0.02 0.02 0.03 0.03 0.03 0.03 0.03 0.02 0.02 0.02 0.03 0.02 0.01 0.02 0.02 0.02 0.02 0.01 0.02 0.03 0.03 0.02 0.01 0.01 0.01 0.01 0.00 0.01 0.01 0.01 0.01 0.02
0.01 0.01 0.01 0.02 0.01 0.01 0.02 0.03 0.03 0.03 0.03 0.05 0.05 0.03 0.02 0.02 0.02 0.03 0.02 0.02 0.02 0.02 0.03 0.03 0.02 0.03 0.03 0.03 0.02 0.01 0.01 0.02 0.01 0.01 0.01 0.01 0.01 0.02
0.01 0.01 0.02 0.02 0.01 0.01 0.02 0.03 0.03 0.02 0.04 0.05 0.05 0.04 0.02 0.01 0.02 0.03 0.03 0.02 0.02 0.03 0.03 0.02 0.02 0.02 0.02 0.02 0.02 0.02 0.02 0.03 0.02 0.01 0.01 0.01 0.01 0.02
0.02 0.03 0.03 0.03 0.02 0.01 0.01 0.02 0.03 0.02 0.03 0.04 0.04 0.04 0.03 0.02 0.02 0.02 0.03 0.02 0.02 0.02 0.02 0.02 0.02 0.01 0.01 0.01 0.02 0.02 0.02 0.02 0.02 0.02 0.02 0.02 0.02 0.02
0.02 0.03 0.04 0.03 0.02 0.01 0.01 0.01 0.02 0.02 0.02 0.03 0.03 0.04 0.04 0.03 0.02 0.02 0.02 0.03 0.02 0.02 0.01 0.02 0.02 0.01 0.01 0.01 0.01 0.01 0.01 0.01 0.01 0.02 0.03 0.03 0.03 0.03
0.02 0.02 0.02 0.01 0.01 0.01 0.00 0.01 0.01 0.02 0.02 0.03 0.03 0.04 0.05 0.04 0.03 0.02 0.01 0.02 0.02 0.02 0.02 0.02 0.02 0.01 0.01 0.01 0.00 0.00 0.01 0.01 0.01 0.02 0.03 0.04 0.03 0.03
0.01 0.01 0.01 0.00 0.00 0.00 0.00 0.01 0.02 0.03 0.03 0.03 0.02 0.03 0.04 0.04 0.02 0.01 0.01 0.01 0.01 0.01 0.02 0.02 0.02 0.01 0.02 0.02 0.01 0.00 0.00 0.01 0.01 0.02 0.02 0.02 0.03 0.04
0.01 0.01 0.01 0.01 0.00 0.00 0.01 0.01 0.02 0.02 0.02 0.01 0.01 0.01 0.02 0.02 0.02 0.01 0.00 0.00 0.01 0.01 0.01 0.01 0.01 0.01 0.02 0.02 0.01 0.01 0.01 0.01 0.01 0.01 0.01 0.01 0.02 0.02
0.01 0.01 0.01 0.01 0.00 0.00 0.00 0.01 0.01 0.01 0.01 0.01 0.01 0.01 0.02 0.02 0.01 0.00 0.00 0.00 0.00 0.00 0.00 0.00 0.01 0.01 0.01 0.01 0.01 0.01 0.01 0.01 0.01 0.01 0.02 0.02 0.02 0.02
0.01 0.01 0.01 0.00 0.00 0.00 0.00 0.00 0.01 0.01 0.01 0.01 0.01 0.01 0.01 0.01 0.01 0.01 0.01 0.01 0.01 0.01 0.01 0.01 0.01 0.01 0.01 0.02 0.02 0.02 0.02 0.02 0.02 0.02 0.02 0.03 0.03 0.03
MSLP
1006.33 1006.64 1006.94 1007.26 1007.61 1007.99 1008.40 1008.85 1009.30 1009.76 1010.20 1010.59 1010.94 1011.21 1011.42 1011.55 1011.62 1011.63 1011.60 1011.53 1011.43 1011.29 1011.12 1010.91 1010.64 1010.32 1009.94 1009.52 1009.08 1008.64 1008.23 1007.89 1007.65 1007.51 1007.50 1007.62 1007.84 1008.15
1006.13 1006.40 1006.66 1006.94 1007.24 1007.60 1008.01 1008.46 1008.96 1009.47 1009.97 1010.43 1010.83 1011.15 1011.38 1011.50 1011.53 1011.49 1011.38 1011.22 1011.04 1010.83 1010.61 1010.37 1010.09 1009.78 1009.42 1009.02 1008.59 1008.16 1007.74 1007.38 1007.10 1006.92 1006.85 1006.90 1007.07 1007.33
1006.14 1006.39 1006.62 1006.85 1007.12 1007.44 1007.82 1008.27 1008.77 1009.30 1009.83 1010.33 1010.76 1011.10 1011.33 1011.45 1011.45 1011.35 1011.18 1010.96 1010.71 1010.46 1010.20 1009.94 1009.67 1009.37 1009.04 1008.67 1008.27 1007.86 1007.44 1007.07 1006.76 1006.54 1006.42 1006.42 1006.51 1006.70
1006.36 1006.60 1006.81 1007.02 1007.25 1007.54 1007.89 1008.30 1008.78 1009.30 1009.82 1010.32 1010.76 1011.10 1011.32 1011.42 1011.39 1011.26 1011.05 1010.79 1010.51 1010.22 1009.95 1009.68 1009.42 1009.14 1008.84 1008.50 1008.13 1007.73 1007.33 1006.96 1006.63 1006.37 1006.21 1006.14 1006.17 1006.28
1006.75 1007.00 1007.22 1007.41 1007.62 1007.88 1008.19 1008.56 1008.99 1009.46 1009.95 1010.41 1010.82 1011.14 1011.34 1011.42 1011.38 1011.23 1011.01 1010.73 1010.44 1010.14 1009.86 1009.60 1009.35 1009.09 1008.81 1008.49 1008.14 1007.77 1007.38 1007.01 1006.67 1006.39 1006.18 1006.06 1006.02 1006.05
1007.26 1007.54 1007.77 1007.97 1008.17 1008.39 1008.66 1008.98 1009.35 1009.75 1010.17 1010.57 1010.93 1011.21 1011.39 1011.45 1011.40 1011.26 1011.04 1010.77 1010.48 1010.19 1009.92 1009.67 1009.42 1009.17 1008.90 1008.60 1008.27 1007.91 1007.53 1007.16 1006.82 1006.53 1006.30 1006.14 1006.05 1006.00
1007.83 1008.14 1008.39 1008.60 1008.80 1009.00 1009.23 1009.49 1009.78 1010.10 1010.44 1010.77 1011.06 1011.29 1011.44 1011.49 1011.44 1011.31 1011.11 1010.87 1010.60 1010.33 1010.07 1009.83 1009.59 1009.34 1009.07 1008.78 1008.45 1008.10 1007.73 1007.37 1007.04 1006.74 1006.51 1006.33 1006.20 1006.11
1008.39 1008.72 1008.99 1009.22 1009.41 1009.60 1009.79 1009.99 1010.21 1010.45 1010.71 1010.95 1011.17 1011.35 1011.46 1011.50 1011.47 1011.36 1011.19 1010.98 1010.74 1010.50 1010.26 1010.01 1009.77 1009.52 1009.25 1008.95 1008.62 1008.28 1007.92 1007.58 1007.26 1006.98 1006.76 1006.58 1006.44 1006.33
1008.90 1009.24 1009.52 1009.75 1009.95 1010.13 1010.28 1010.44 1010.60 1010.76 1010.93 1011.10 1011.26 1011.38 1011.47 1011.50 1011.47 1011.39 1011.25 1011.07 1010.87 1010.65 1010.41 1010.17 1009.93 1009.66 1009.38 1009.08 1008.75 1008.41 1008.07 1007.75 1007.46 1007.21 1007.00 1006.84 1006.72 1006.61
1009.34 1009.67 1009.96 1010.20 1010.39 1010.56 1010.69 1010.80 1010.91 1011.01 1011.11 1011.22 1011.32 1011.40 1011.46 1011.48 1011.46 1011.40 1011.29 1011.13 1010.95 1010.74 1010.52 1010.27 1010.02 1009.74 1009.45 1009.14 1008.81 1008.49 1008.17 1007.87 1007.60 1007.38 1007.21 1007.08 1006.97 1006.89
1009.74 1010.05 1010.32 1010.56 1010.75 1010.91 1011.02 1011.11 1011.17 1011.23 1011.28 1011.33 1011.39 1011.44 1011.47 1011.48 1011.46 1011.40 1011.30 1011.16 1010.99 1010.78 1010.55 1010.30 1010.03 1009.74 1009.44 1009.13 1008.81 1008.50 1008.20 1007.92 1007.68 1007.49 1007.34 1007.24 1007.16 1007.10
1010.13 1010.41 1010.67 1010.89 1011.08 1011.23 1011.33 1011.40 1011.44 1011.46 1011.48 1011.49 1011.51 1011.53 1011.54 1011.53 1011.50 1011.43 1011.33 1011.18 1011.00 1010.78 1010.54 1010.27 1009.99 1009.69 1009.38 1009.07 1008.76 1008.46 1008.18 1007.92 1007.70 1007.53 1007.40 1007.31 1007.25 1007.21
1010.55 1010.80 1011.04 1011.25 1011.43 1011.57 1011.67 1011.72 1011.75 1011.75 1011.74 1011.73 1011.72 1011.70 1011.69 1011.65 1011.59 1011.50 1011.37 1011.20 1011.00 1010.76 1010.49 1010.21 1009.91 1009.60 1009.30 1008.99 1008.69 1008.40 1008.13 1007.89 1007.68 1007.50 1007.37 1007.28 1007.22 1007.18
1011.01 1011.24 1011.47 1011.67 1011.85 1011.98 1012.07 1012.11 1012.12 1012.11 1012.08 1012.05 1012.01 1011.97 1011.92 1011.85 1011.76 1011.63 1011.46 1011.25 1011.01 1010.74 1010.45 1010.14 1009.83 1009.52 1009.21 1008.91 1008.62 1008.34 1008.08 1007.84 1007.62 1007.44 1007.29 1007.18 1007.10 1007.06
1011.53 1011.75 1011.96 1012.16 1012.33 1012.45 1012.53 1012.56 1012.56 1012.54 1012.50 1012.45 1012.39 1012.32 1012.23 1012.12 1011.98 1011.81 1011.59 1011.34 1011.06 1010.75 1010.43 1010.10 1009.78 1009.47 1009.16 1008.87 1008.59 1008.32 1008.06 1007.82 1007.59 1007.38 1007.21 1007.06 1006.95 1006.88
1012.09 1012.31 1012.52 1012.71 1012.86 1012.97 1013.04 1013.06 1013.05 1013.01 1012.96 1012.89 1012.81 1012.71 1012.59 1012.45 1012.26 1012.04 1011.78 1011.48 1011.16 1010.81 1010.47 1010.13 1009.80 1009.48 1009.19 1008.90 1008.63 1008.37 1008.11 1007.86 1007.62 1007.39 1007.17 1006.99 1006.85 1006.74
1012.67 1012.89 1013.10 1013.28 1013.41 1013.51 1013.55 1013.57 1013.54 1013.50 1013.43 1013.35 1013.25 1013.13 1012.98 1012.80 1012.58 1012.32 1012.01 1011.68 1011.32 1010.96 1010.59 1010.24 1009.91 1009.61 1009.32 1009.05 1008.79 1008.53 1008.27 1008.01 1007.76 1007.51 1007.27 1007.06 1006.88 1006.74
1013.25 1013.48 1013.67 1013.83 1013.95 1014.02 1014.04 1014.04 1014.00 1013.95 1013.87 1013.79 1013.68 1013.54 1013.38 1013.17 1012.92 1012.64 1012.31 1011.95 1011.58 1011.20 1010.84 1010.49 1010.16 1009.86 1009.59 1009.33 1009.08 1008.83 1008.57 1008.32 1008.05 1007.79 1007.54 1007.31 1007.10 1006.94
1013.82 1014.04 1014.21 1014.35 1014.43 1014.48 1014.48 1014.46 1014.42 1014.35 1014.28 1014.19 1014.08 1013.94 1013.77 1013.55 1013.30 1013.00 1012.67 1012.31 1011.94 1011.56 1011.21 1010.87 1010.56 1010.27 1010.01 1009.76 1009.52 1009.28 1009.03 1008.77 1008.51 1008.25 1007.99 1007.76 1007.55 1007.38
1014.38 1014.57 1014.71 1014.81 1014.86 1014.88 1014.86 1014.83 1014.78 1014.72 1014.65 1014.57 1014.46 1014.33 1014.16 1013.96 1013.70 1013.41 1013.09 1012.75 1012.39 1012.04 1011.70 1011.39 1011.09 1010.82 1010.57 1010.33 1010.10 1009.86 1009.61 1009.36 1009.11 1008.86 1008.61 1008.39 1008.19 1008.02
1014.91 1015.05 1015.16 1015.21 1015.23 1015.23 1015.20 1015.16 1015.11 1015.06 1015.00 1014.93 1014.84 1014.72 1014.57 1014.37 1014.14 1013.87 1013.57 1013.25 1012.93 1012.61 1012.30 1012.02 1011.75 1011.49 1011.25 1011.02 1010.78 1010.54 1010.29 1010.04 1009.79 1009.56 1009.33 1009.13 1008.95 1008.80
1015.40 1015.49 1015.55 1015.57 1015.56 1015.53 1015.50 1015.46 1015.42 1015.39 1015.35 1015.29 1015.22 1015.12 1014.98 1014.80 1014.59 1014.35 1014.08 1013.80 1013.51 1013.23 1012.97 1012.71 1012.46 1012.23 1011.99 1011.75 1011.51 1011.26 1011.00 1010.75 1010.51 1010.28 1010.07 1009.89 1009.74 1009.61
1015.82 1015.87 1015.88 1015.87 1015.84 1015.81 1015.78 1015.75 1015.73 1015.72 1015.69 1015.66 1015.60 1015.51 1015.38 1015.22 1015.03 1014.81 1014.58 1014.34 1014.09 1013.86 1013.63 1013.40 1013.18 1012.96 1012.73 1012.48 1012.23 1011.96 1011.69 1011.43 1011.17 1010.95 1010.75 1010.59 1010.46 1010.36
Thickness
5626 5626 5624 5625 5624 5623 5622 5621 5619 5621 5625 5627 5629 5631 5632 5633 5634 5636 5638 5639 5640 5641 5641 5642 5642 5643 5644 5645 5646 5648 5649 5651 5652 5654 5655 5656 5656 5657
5621 5621 5620 5620 5619 5619 5618 5617 5617 5616 5618 5622 5623 5624 5625 5626 5627 5629 5631 5633 5634 5635 5636 5636 5637 5637 5638 5639 5640 5642 5643 5645 5646 5648 5649 5650 5652 5652
5616 5616 5615 5614 5614 5613 5613 5613 5612 5612 5612 5615 5616 5617 5618 5619 5620 5622 5624 5626 5627 5628 5629 5630 5630 5631 5631 5632 5633 5635 5636 5638 5640 5642 5643 5645 5646 5647
5611 5611 5610 5610 5608 5608 5608 5608 5607 5607 5607 5608 5609 5610 5610 5612 5613 5614 5616 5618 5619 5621 5622 5623 5624 5624 5625 5626 5627 5628 5630 5631 5633 5635 5637 5638 5639 5640
5606 5605 5605 5604 5603 5603 5604 5603 5602 5602 5601 5600 5601 5601 5602 5603 5604 5606 5608 5609 5611 5613 5614 5615 5616 5618 5619 5620 5620 5622 5623 5625 5626 5627 5629 5630 5632 5633
5601 5601 5600 5599 5599 5599 5599 5598 5597 5595 5594 5593 5593 5593 5594 5595 5596 5597 5599 5600 5602 5604 5606 5607 5609 5611 5612 5613 5615 5616 5616 5617 5618 5620 5621 5622 5624 5625
5597 5596 5596 5596 5596 5594 5593 5592 5590 5589 5588 5587 5586 5586 5587 5588 5589 5590 5591 5592 5594 5595 5597 5599 5602 5604 5605 5606 5607 5608 5610 5610 5611 5613 5613 5614 5616 5618
5592 5592 5592 5591 5591 5589 5588 5587 5585 5584 5583 5582 5582 5580 5582 5582 5582 5583 5583 5584 5586 5588 5588 5591 5593 5595 5598 5599 5600 5601 5603 5603 5604 5605 5606 5607 5608 5610
5588 5587 5587 5586 5585 5584 5583 5582 5580 5579 5578 5578 5577 5577 5577 5578 5577 5577 5576 5577 5578 5579 5580 5584 5585 5587 5590 5592 5593 5594 5595 5596 5597 5598 5598 5599 5600 5602
5585 5583 5582 5580 5579 5578 5577 5576 5575 5575 5574 5574 5573 5574 5573 5572 5572 5571 5571 5570 5571 5572 5573 5575 5578 5580 5583 5584 5586 5586 5587 5588 5589 5590 5591 5592 5593 5595
5582 5580 5578 5576 5574 5572 5571 5571 5571 5571 5571 5570 5569 5568 5568 5567 5565 5565 5565 5565 5566 5568 5567 5568 5571 5572 5574 5577 5578 5579 5580 5581 5582 5583 5584 5585 5586 5587
5579 5576 5574 5572 5570 5568 5566 5565 5565 5566 5566 5566 5564 5564 5563 5562 5561 5560 5560 5560 5560 5561 5562 5561 5564 5565 5568 5570 5571 5572 5573 5574 5574 5576 5577 5578 5578 5579
5576 5574 5571 5569 5566 5564 5562 5561 5560 5559 5559 5559 5559 5559 5559 5557 5557 5556 5555 5555 5556 5557 5558 5556 5558 5558 5559 5562 5564 5565 5566 5567 5568 5569 5570 5570 5571 5572
5572 5570 5568 5565 5563 5562 5560 5558 5556 5555 5555 5555 5555 5554 5554 5553 5553 5552 5552 5551 5551 5552 5552 5551 5552 5552 5553 5555 5557 5558 5559 5560 5561 5562 5564 5564 5564 5565
5569 5567 5564 5563 5561 5560 5558 5556 5554 5553 5552 5550 5549 5549 5548 5547 5547 5547 5548 5547 5547 5547 5548 5547 5547 5547 5547 5549 5551 5552 5553 5554 5554 5555 5556 5557 5559 5560
5567 5565 5562 5560 5558 5556 5555 5553 5551 5549 5547 5545 5544 5543 5542 5542 5541 5541 5542 5542 5542 5544 5543 5542 5542 5542 5542 5543 5544 5546 5546 5547 5549 5549 5549 5551 5552 5553
5564 5562 5560 5558 5556 5554 5552 5550 5547 5544 5542 5540 5539 5538 5537 5536 5536 5535 5534 5534 5534 5536 5537 5537 5537 5536 5537 5537 5538 5540 5541 5541 5542 5542 5542 5544 5546 5547
5561 5560 5558 5555 5553 5550 5548 5546 5543 5540 5538 5536 5534 5533 5532 5530 5529 5529 5528 5528 5528 5528 5528 5529 5528 5530 5530 5531 5529 5532 5533 5534 5535 5535 5535 5537 5540 5540
5560 5558 5555 5552 5550 5547 5544 5542 5539 5536 5533 5531 5529 5528 5526 5524 5523 5523 5522 5521 5521 5521 5521 5520 5520 5521 5523 5526 5526 5523 5524 5526 5527 5527 5528 5529 5532 5533
5559 5556 5553 5550 5546 5543 5540 5537 5534 5531 5529 5526 5524 5522 5520 5518 5517 5516 5515 5514 5514 5514 5514 5514 5513 5513 5513 5515 5516 5517 5515 5516 5518 5520 5521 5521 5522 5523
5557 5554 5550 5547 5544 5540 5537 5533 5530 5527 5523 5520 5518 5515 5513 5512 5511 5510 5509 5506 5506 5507 5507 5507 5506 5504 5505 5506 5508 5510 5509 5507 5508 5509 5512 5513 5515 5515
5555 5552 5548 5545 5541 5537 5533 5530 5526 5522 5519 5516 5513 5510 5508 5506 5505 5504 5503 5502 5501 5501 5500 5500 5499 5499 5500 5500 5501 5501 5501 5501 5500 5499 5500 5501 5504 5506
5553 5549 5545 5541 5538 5534 5530 5526 5522 5519 5515 5511 5508 5505 5503 5502 5500 5499 5498 5497 5496 5495 5495 5495 5494 5493 5493 5492 5492 5493 5493 5493 5493 5493 5492 5491 5491 5491